Tracking 18980 objects as of 22-Feb-2018
HD Live streaming from Space Station
objects crossing your sky now

FENGYUN 1C DEB

Track FENGYUN 1C DEB now!
10-day predictions


NORAD ID: 30068
Int'l Code: 1999-025PV
Perigee: 724.8 km
Apogee: 1,006.5 km
Inclination: 98.8 °
Period: 102.1 minutes
Semi major axis: 7236 km
RCS: 0.0703 m2 (small)
Launch date: May 10, 1999
Source: People's Republic of China (PRC)
Launch site: Taiyaun Space Center, China (TSC)

Note: This is SATELLITE DEBRIS
aabbcc
Your satellite tracking list
Your tracking list is empty




NASA's NSSDC Master Catalog

Two Line Element Set (TLE):
1 30068U 99025PV  18052.62431368 -.00000097 +00000-0 -25661-4 0  9993
2 30068 098.8035 086.0156 0194585 161.6255 199.2075 14.10253698571449
Source of the keplerian elements: AFSPC